If you wish to contribute or participate in the discussions about articles you are invited to join SKYbrary as a registered user

 Actions

Tromso/Langnes

From SKYbrary Wiki

ENTC
Airport
ICAO: ENTC
Summary
Name Tromso/Langnes
Region Europe
Territory Norway NO.gif
Location Tromso, Norway
Serving
Coordinates 69° 40' 54.00" N, 18° 55' 6.00" E
Runways
Designator Length Width Surface ROPS
1/19 2392 m7,847.769 ft <br /> 45 m147.638 ft <br /> ASP yes/yes


METAR
Observation ENTC 071050Z 04009KT 010V090 9999 FEW035 SCT055 04/M05 Q1004 NOSIG RMK WIND 2600FT 07010KT
Station Tromso / Langnes
Date/Time 07 May 2021 10:50:00
Wind direction 40°
Wind speed 09 kts
Lowest cloud amount few clouds
Temperature 4°C
Dew point
Humidity 51%
QNH 1004 hPa
Weather condition n/a


Tromsø Airport

ICAO: ENTC IATA: TOS

Description

International airport serving city of Tromso in northern Norway.

Climatology

Borderline Subpolar Oceanic/Continental subarctic climate (because of winter temperatures) (Köppen climate classification Cfc/Dfc) - uniform precipitation distribution, temperatures are moderated by the proximity of the ocean and warm currents - cool summers and comparatively mild winters.

Tromso has a reputation for heavy snowfalls in winter.

Maps

Terrain

Loading map...

Airport Layout

Loading map...


Accidents & Serious Incidents at or in vicinity of ENTC

None on SKYbrary